Date String (YYYY-MM-DD hh:mm:ss) UTC,Instrument flags,absolute air pressure of the measurement (hPa),sample flow rate (lpm),inlet stack bypass flow (lpm),air temperature of the measurement (°C),ambient temperature measured by the external sensor (°C),aerosol sample conditioner tube jacket temperature (°C),OPC LED temperature (°C),internal box temperature (°C),relative humidity of the measurement (%),span deviation,mass concentration of particles derived from Lorenz-Mie calculation of OPC scattering (μg/m³),mass concentration of particles derived from Lorenz-Mie calculation of OPC scattering (μg/m³),mass concentration of particles derived from Lorenz-Mie calculation of OPC scattering (μg/m³)
DateTimeUTC,F1_M11,P_M11,Q1_M11,Q2_M11,T1_M11,T2_M11,T3_M11,T4_M11,T5_M11,U1_M11,ZSPAN_M11,X0_M11,X2_M11,X1_M11
2024-02-04 05:00:00,SystemResetWarning,0820.2,5.01,000.00,018.9,018.4,000.0,027.2,020.6,26.0,0000.0,0002.91,0002.04,0001.91
2024-02-04 05:01:00,SystemResetWarning,0820.1,5.01,000.00,018.9,018.4,000.0,027.2,020.6,26.0,0000.0,0003.45,0002.06,0001.93
2024-02-04 05:02:00,SystemResetWarning,0820.0,5.00,000.00,018.9,018.4,000.0,027.2,020.6,26.0,0000.0,0003.35,0002.09,0001.95
2024-02-04 05:03:00,SystemResetWarning,0820.0,5.00,000.00,018.9,018.4,000.0,027.2,020.6,26.0,0000.0,0003.26,0002.09,0001.97
2024-02-04 05:04:00,SystemResetWarning,0820.0,5.00,000.00,018.9,018.4,000.0,027.2,020.6,25.8,0000.0,0003.31,0002.12,0002.00
2024-02-04 05:05:00,SystemResetWarning,0820.0,4.99,000.00,018.9,018.4,000.0,027.2,020.6,25.8,0000.0,0003.32,0002.15,0002.03
2024-02-04 05:06:00,SystemResetWarning,0820.1,5.01,000.00,018.9,018.4,000.0,027.2,020.6,25.8,0000.0,0003.31,0002.14,0002.01
2024-02-04 05:07:00,SystemResetWarning,0820.1,5.00,000.00,018.9,018.4,000.0,027.2,020.6,25.7,0000.0,0003.33,0002.12,0001.97
2024-02-04 05:08:00,SystemResetWarning,0820.1,5.00,000.00,018.9,018.4,000.0,027.2,020.6,25.7,0000.0,0003.36,0002.12,0001.95
2024-02-04 05:09:00,SystemResetWarning,0820.2,5.00,000.00,018.9,018.4,000.0,027.2,020.6,25.7,0000.0,0003.38,0002.12,0001.96
2024-02-04 05:10:00,SystemResetWarning,0820.5,5.00,000.00,018.9,018.4,000.0,027.2,020.6,25.9,0000.0,0003.34,0002.11,0001.94
2024-02-04 05:11:00,SystemResetWarning,0820.1,4.99,000.00,018.9,018.4,000.0,027.2,020.6,26.5,0000.0,0003.26,0002.08,0001.92
2024-02-04 05:12:00,SystemResetWarning,0820.2,5.00,000.00,018.9,018.4,000.0,027.2,020.6,27.5,0000.0,0002.52,0002.05,0001.90
2024-02-04 05:13:00,SystemResetWarning,0820.2,5.00,000.00,018.9,018.4,000.0,027.2,020.6,26.9,0000.0,0002.86,0002.20,0001.96
2024-02-04 05:14:00,SystemResetWarning,0820.3,5.01,000.00,018.9,018.4,000.0,027.2,020.6,26.6,0000.0,0003.48,0002.50,0002.14
2024-02-04 05:15:00,SystemResetWarning,0820.2,5.01,000.00,018.9,018.4,000.0,027.2,020.6,26.6,0000.0,0004.64,0002.84,0002.34
2024-02-04 05:16:00,SystemResetWarning,0820.3,5.01,000.00,018.9,018.4,000.0,027.2,020.6,26.6,0000.0,0005.85,0003.02,0002.48
2024-02-04 05:17:00,SystemResetWarning,0820.3,4.99,000.00,018.9,018.4,000.0,027.2,020.6,26.6,0000.0,0007.31,0003.25,0002.66
2024-02-04 05:18:00,SystemResetWarning,0820.3,5.00,000.00,018.9,018.4,000.0,027.2,020.6,26.6,0000.0,0008.92,0003.50,0002.87
2024-02-04 05:19:00,SystemResetWarning,0820.3,5.01,000.00,018.9,018.4,000.0,027.2,020.6,26.6,0000.0,0010.63,0003.73,0003.06
2024-02-04 05:20:00,SystemResetWarning,0820.4,4.99,000.00,018.9,018.4,000.0,027.2,020.6,26.6,0000.0,0011.92,0003.95,0003.20
2024-02-04 05:21:00,SystemResetWarning,0820.4,5.00,000.00,018.9,018.4,000.0,027.2,020.6,26.6,0000.0,0013.43,0004.16,0003.31
2024-02-04 05:22:00,SystemResetWarning,0820.3,4.99,000.00,018.9,018.4,000.0,027.2,020.6,26.6,0000.0,0014.07,0004.38,0003.42
2024-02-04 05:23:00,SystemResetWarning,0820.3,5.00,000.00,018.9,018.4,000.0,027.2,020.6,26.6,0000.0,0014.74,0004.65,0003.54
2024-02-04 05:24:00,SystemResetWarning,0820.4,5.01,000.00,018.9,018.4,000.0,027.2,020.6,26.6,0000.0,0015.13,0004.82,0003.63
2024-02-04 05:25:00,SystemResetWarning,0820.3,5.01,000.00,018.9,018.4,000.0,027.2,020.6,26.6,0000.0,0015.31,0004.88,0003.66
2024-02-04 05:26:00,SystemResetWarning,0820.8,5.00,000.00,018.9,018.4,000.0,027.2,020.6,26.7,0000.0,0015.84,0004.93,0003.68
2024-02-04 05:27:00,SystemResetWarning,0820.9,4.98,000.00,018.9,018.4,000.0,027.2,020.6,26.7,0000.0,0017.99,0005.09,0003.71
2024-02-04 05:28:00,SystemResetWarning,0820.8,5.00,000.00,018.9,018.4,000.0,027.2,020.6,26.6,-000.1,0020.14,0005.15,0003.72
2024-02-04 05:29:00,SystemResetWarning,0820.9,5.00,000.00,018.9,018.4,000.0,027.2,020.6,26.6,-005.4,0020.12,0005.13,0003.70
2024-02-04 05:30:00,SystemResetWarning,0820.8,5.00,000.00,018.9,018.4,000.0,027.2,020.6,26.6,-003.4,0019.46,0005.11,0003.66
2024-02-04 05:31:00,SystemResetWarning,0820.9,5.00,000.00,018.9,018.4,000.0,027.2,020.6,26.6,-003.7,0019.60,0005.05,0003.62
2024-02-04 05:32:00,SystemResetWarning,0820.9,5.00,000.00,018.9,018.4,000.0,027.2,020.6,26.6,-001.0,0018.89,0005.01,0003.56
2024-02-04 05:33:00,SystemResetWarning,0821.0,5.00,000.00,018.9,018.5,000.0,027.2,020.6,26.6,0000.0,0019.35,0004.98,0003.51
2024-02-04 05:34:00,SystemResetWarning,0820.8,5.00,000.00,018.9,018.5,000.0,027.2,020.6,26.6,0000.0,0019.22,0004.90,0003.46
2024-02-04 05:35:00,SystemResetWarning,0820.9,4.99,000.00,019.0,018.5,000.0,027.3,020.6,26.6,0000.0,0019.03,0004.77,0003.38
2024-02-04 05:36:00,SystemResetWarning,0820.9,5.00,000.00,019.0,018.5,000.0,027.3,020.6,26.5,0000.0,0019.42,0004.69,0003.31
2024-02-04 05:37:00,SystemResetWarning,0820.9,5.00,000.00,018.9,018.5,000.0,027.3,020.6,26.5,0000.0,0018.78,0004.59,0003.23
2024-02-04 05:38:00,SystemResetWarning,0820.9,5.00,000.00,019.0,018.5,000.0,027.3,020.6,26.5,0000.0,0017.62,0004.48,0003.16
2024-02-04 05:39:00,SystemResetWarning,0820.9,5.00,000.00,019.0,018.5,000.0,027.2,020.6,26.5,0000.0,0015.39,0004.34,0003.07
2024-02-04 05:40:00,SystemResetWarning,0820.8,5.00,000.00,019.0,018.5,000.0,027.2,020.6,26.6,0000.0,0015.57,0004.21,0002.98
2024-02-04 05:41:00,SystemResetWarning,0820.8,4.99,000.00,019.0,018.5,000.0,027.2,020.6,26.6,0000.0,0015.13,0004.11,0002.94
2024-02-04 05:42:00,SystemResetWarning,0820.6,5.00,000.00,018.9,018.5,000.0,027.2,020.6,26.6,0000.0,0014.69,0004.09,0002.93
2024-02-04 05:43:00,SystemResetWarning,0820.5,4.99,000.00,018.9,018.4,000.0,027.2,020.6,26.5,0000.0,0014.67,0004.11,0003.01
2024-02-04 05:44:00,SystemResetWarning,0820.5,5.00,000.00,018.9,018.4,000.0,027.2,020.6,26.5,0000.0,0013.79,0004.09,0003.04
2024-02-04 05:45:00,SystemResetWarning,0820.6,5.00,000.00,018.9,018.4,000.0,027.2,020.6,26.5,0000.0,0013.72,0004.06,0003.00
2024-02-04 05:46:00,SystemResetWarning,0820.5,4.99,000.00,018.9,018.4,000.0,027.2,020.6,26.4,0000.0,0014.38,0004.02,0002.97
2024-02-04 05:47:00,SystemResetWarning,0820.5,5.01,000.00,018.9,018.4,000.0,027.2,020.6,26.4,0000.0,0013.72,0003.90,0002.90
2024-02-04 05:48:00,SystemResetWarning,0820.5,5.01,000.00,018.9,018.4,000.0,027.2,020.6,26.4,0000.0,0014.06,0003.81,0002.80
2024-02-04 05:49:00,SystemResetWarning,0820.6,4.99,000.00,018.9,018.4,000.0,027.2,020.6,26.4,0000.0,0013.32,0003.69,0002.72
2024-02-04 05:50:00,SystemResetWarning,0820.6,5.00,000.00,018.9,018.4,000.0,027.2,020.6,26.4,0000.0,0012.47,0003.65,0002.67
2024-02-04 05:51:00,SystemResetWarning,0820.7,5.01,000.00,018.9,018.4,000.0,027.2,020.6,26.4,0000.0,0010.86,0003.56,0002.61
2024-02-04 05:52:00,SystemResetWarning,0820.6,5.00,000.00,018.9,018.4,000.0,027.2,020.6,26.4,0000.0,0010.19,0003.44,0002.52
2024-02-04 05:53:00,SystemResetWarning,0820.6,5.00,000.00,018.9,018.4,000.0,027.2,020.6,26.5,0000.0,0009.17,0003.29,0002.38
2024-02-04 05:54:00,SystemResetWarning,0820.6,4.99,000.00,018.9,018.4,000.0,027.2,020.6,26.6,0000.0,0008.42,0003.13,0002.20
2024-02-04 05:55:00,SystemResetWarning,0820.6,5.00,000.00,018.9,018.4,000.0,027.2,020.5,26.6,0000.0,0008.48,0002.89,0002.08
2024-02-04 05:56:00,SystemResetWarning,0820.6,5.02,000.00,018.9,018.3,000.0,027.2,020.5,26.6,0000.0,0009.20,0002.81,0002.05
2024-02-04 05:57:00,SystemResetWarning,0820.6,5.00,000.00,018.9,018.3,000.0,027.2,020.5,26.6,0000.0,0008.85,0002.82,0002.03
2024-02-04 05:58:00,SystemResetWarning,0820.6,4.98,000.00,018.9,018.3,000.0,027.2,020.5,26.7,0000.0,0008.77,0002.84,0002.01
2024-02-04 05:59:00,SystemResetWarning,0820.6,5.00,000.00,018.9,018.3,000.0,027.2,020.5,26.7,0000.0,0008.16,0002.76,0001.97
